Regional Weather Roundup
Issued by NWS Albany, NY

Home | Current Version | Previous Version | Text Only | Print | Product List | Glossary On
Versions: 1 2 3 4 5 6 7 8 9 10 11 12 13 14 15 16 17 18 19 20 21 22 23 24 25 26 27 28 29 30 31 32 33 34 35 36 37 38 39 40 41 42 43 44 45 46 47 48 49 50
000
ASUS41 KALY 272310
RWRALY

NEW YORK STATE HOURLY WEATHER ROUNDUP
NATIONAL WEATHER SERVICE ALBANY NY
600 PM EST FRI FEB 27 2015

NOTE: "FAIR" INDICATES FEW OR NO CLOUDS BELOW 12,000 FEET WITH NO
SIGNIFICANT WEATHER AND/OR NO OBSTRUCTIONS TO VISIBILITY.

NYZ032-033-038>043-046>054-057>066-NYZ062>081-280000-
EAST


CITY           SKY/WX    TMP DP  RH WIND       PRES   REMARKS
ALBANY         CLEAR     18  -1  43 W12       30.47R WCI   5
GLENS FALLS    FAIR      18   2  49 SE5       30.41R WCI  11
POUGHKEEPSIE   CLEAR     25   0  33 N3        30.44R
NEWBURGH       CLEAR     23   7  50 W14       30.43R WCI  11
MONTGOMERY     CLEAR     24  -1  33 W8G18     30.43R WCI  15
WHITE PLAINS   CLEAR     24   2  38 NW6       30.42R WCI  17
ISLIP          PTCLDY    25   5  42 W7        30.44R WCI  17
NEW YORK CITY  PTCLDY    29   4  34 W10       30.46R WCI  20
CENTRAL PARK   CLEAR     28   2  32 VRB6      30.47R WCI  22
$$

NYZ005>009-017-018-044>046-055-056-280000-
CENTRAL


CITY           SKY/WX    TMP DP  RH WIND       PRES   REMARKS
FULTON         CLEAR     12   0  58 W12       30.53R WCI  -2
SYRACUSE       MOCLDY    14   1  55 W8        30.53R WCI   3
ROME           MIX PCPN  12   3  67 NW12      30.53R WCI  -2
ELMIRA         CLEAR     16  -1  47 N6        30.48R WCI   7
BINGHAMTON     CLEAR     11  -2  56 N9        30.40R WCI  -2
MONTICELLO     CLEAR     16  -6  38 NW8       30.38R WCI   5
$$

NYZ026>034-041>043-280000-
NORTH


CITY           SKY/WX    TMP DP  RH WIND       PRES   REMARKS
WATERTOWN      LGT SNOW  14   7  73 SW16G23   30.51R WCI  -2
FORT DRUM      NOT AVBL
MASSENA        CLEAR     12  -7  42 SW15      30.47R WCI  -4
SARANAC LAKE   CLEAR     10  -6  48 W7        30.30R WCI  -1
PLATTSBURGH    CLEAR     11  -6  46 CALM      30.43R
$$

NYZ001>004-010>016-019>021-280000-
WEST


CITY           SKY/WX    TMP DP  RH WIND       PRES   REMARKS
NIAGARA FALLS  PTCLDY     9   1  70 SW15      30.55R WCI  -8
BUFFALO        PTCLDY     8   1  73 SW16      30.55R WCI -10
DUNKIRK        CLEAR      8   1  73 SW10      30.59R WCI  -6
JAMESTOWN      CLEAR      7  -6  56 W9        30.47R WCI  -7
WELLSVILLE     CLEAR      8  -9  45 NW12      30.40R WCI  -7
ROCHESTER      PTCLDY    10  -1  61 W13       30.56R WCI  -5
PENN YAN       CLEAR     12  -7  42 NW7       30.49R WCI   1
$$

             KEY
       WCI = WIND CHILL INDEX
       VSB = VISIBILITY
       HX  = HEAT INDEX
$$


USA.gov is the U.S. government's official web portal to all federal, state and local government web resources and services.